K3JAE Weather Reports


Display with metric or nautical units.
time (UTC)temp
F
wind
direction
speed
MPH
gust
MPH
rain 1hr
in
rain 24hr
in
rain mn
in
humidity
%
barometer
mb
20190323085006 42 44 1.0 3.0 0.00 0.00 0.00 76 1022.9
20190323084006 42 43 0.0 2.0 0.00 0.00 0.00 75 1023.0
20190323075504 44 43 1.0 3.0 0.00 0.00 0.00 71 1023.3
20190323074505 44 43 1.0 3.0 0.00 0.00 0.00 72 1023.4
20190323073504 44 43 1.0 2.0 0.00 0.00 0.00 72 1023.4
20190323073006 44 43 1.0 2.0 0.00 0.00 0.00 73 1023.4
20190323072005 44 43 0.0 2.0 0.00 0.00 0.00 72 1023.4
20190323071505 44 43 0.0 0.0 0.00 0.00 0.00 71 1023.3
20190323070504 45 43 0.0 1.0 0.00 0.00 0.00 70 1023.2
20190323070004 45 43 0.0 1.0 0.00 0.00 0.00 70 1023.2
20190323065504 45 43 0.0 2.0 0.00 0.00 0.00 69 1023.1
20190323065005 46 43 0.0 2.0 0.00 0.00 0.00 68 1023.0
20190323064005 46 43 0.0 2.0 0.00 0.00 0.00 68 1022.9
20190323063504 46 43 0.0 3.0 0.00 0.00 0.00 68 1022.8
20190323062505 46 43 0.0 1.0 0.00 0.00 0.00 67 1022.7
20190323061504 46 43 0.0 3.0 0.00 0.00 0.00 67 1022.7
20190323061005 47 43 1.0 3.0 0.00 0.00 0.00 66 1022.7
20190323060504 47 43 0.0 2.0 0.00 0.00 0.00 66 1022.5
20190323060005 47 43 0.0 2.0 0.00 0.00 0.00 65 1022.5
20190323055505 47 43 0.0 3.0 0.00 0.00 0.00 65 1022.6
20190323054504 48 41 2.0 3.0 0.00 0.00 0.00 64 1022.5
20190323053005 47 51 2.0 3.0 0.00 0.00 0.00 64 1022.4
20190323051504 48 49 1.0 3.0 0.00 0.00 0.00 63 1022.2
20190323042504 49 53 5.0 9.0 0.00 0.00 0.00 63 1021.9
20190323042005 49 27 3.0 6.0 0.00 0.00 0.00 65 1021.9
20190323035005 48 17 0.0 0.0 0.00 0.00 0.00 69 1021.6
20190323034505 48 17 0.0 3.0 0.00 0.00 0.00 69 1021.5
20190323032005 49 5 0.0 1.0 0.00 0.00 0.00 65 1021.7
20190323031005 49 5 0.0 1.0 0.00 0.00 0.00 66 1021.5
20190323030504 49 5 0.0 0.0 0.00 0.00 0.00 66 1021.5
20190323030004 49 5 0.0 2.0 0.00 0.00 0.00 66 1021.5
20190323025005 49 5 1.0 3.0 0.00 0.00 0.00 66 1021.3
20190323024505 50 5 1.0 3.0 0.00 0.00 0.00 64 1021.3
20190323023504 51 325 1.0 2.0 0.00 0.00 0.00 61 1021.2
20190323023005 51 325 0.0 3.0 0.00 0.00 0.00 60 1021.2
20190323022504 52 325 2.0 3.0 0.00 0.00 0.00 58 1021.0
20190323020504 53 297 0.0 2.0 0.00 0.00 0.00 53 1020.8
20190323020004 53 297 0.0 2.0 0.00 0.00 0.00 53 1020.7
20190323015005 54 297 0.0 3.0 0.00 0.00 0.00 51 1020.6
20190323014005 55 297 0.0 2.0 0.00 0.00 0.00 49 1020.4
20190323013006 56 297 0.0 1.0 0.00 0.00 0.00 48 1020.3
20190323011504 56 297 0.0 0.0 0.00 0.00 0.00 47 1020.2
20190323010004 57 297 0.0 1.0 0.00 0.00 0.00 46 1020.1
20190323004506 58 297 0.0 0.0 0.00 0.00 0.00 44 1019.9
20190323003505 58 297 0.0 1.0 0.00 0.00 0.00 44 1019.9
20190323003005 59 297 0.0 1.0 0.00 0.00 0.00 43 1019.8
20190323002006 60 297 0.0 2.0 0.00 0.00 0.00 42 1019.8
20190323001504 60 297 0.0 2.0 0.00 0.00 0.00 41 1019.7
20190323001005 61 297 0.0 3.0 0.00 0.00 0.00 41 1019.7
20190323000505 61 297 0.0 3.0 0.00 0.00 0.00 39 1019.7
20190323000005 62 297 1.0 3.0 0.00 0.00 0.00 38 1019.6
20190322235505 62 297 1.0 5.0 0.00 0.00 0.00 39 1019.6
20190322234506 64 313 1.0 3.0 0.00 0.00 0.00 37 1019.5
20190322234006 64 313 1.0 3.0 0.00 0.00 0.00 36 1019.3
20190322233004 65 319 1.0 3.0 0.00 0.00 0.00 34 1019.3
20190322232505 65 319 1.0 3.0 0.00 0.00 0.00 34 1019.3
20190322232005 65 316 1.0 8.0 0.00 0.00 0.00 34 1019.3
20190322230504 65 333 0.0 7.0 0.00 0.00 0.00 33 1019.3
20190322230004 65 313 3.0 7.0 0.00 0.00 0.00 32 1019.3
20190322225504 65 314 0.0 9.0 0.00 0.00 0.00 33 1019.2
20190322225004 65 306 5.0 9.0 0.00 0.00 0.00 32 1019.2
20190322224505 65 286 4.0 12.0 0.00 0.00 0.00 33 1019.1
20190322224005 65 326 5.0 12.0 0.00 0.00 0.00 31 1019.1
20190322223504 66 306 5.0 12.0 0.00 0.00 0.00 31 1019.1
20190322222504 66 303 6.0 12.0 0.00 0.00 0.00 30 1019.2
20190322222005 66 312 7.0 12.0 0.00 0.00 0.00 29 1019.1
20190322221504 66 304 6.0 12.0 0.00 0.00 0.00 29 1019.2
20190322220505 67 297 3.0 12.0 0.00 0.00 0.00 30 1019.2
20190322220005 67 302 7.0 12.0 0.00 0.00 0.00 29 1019.2
20190322215505 67 293 3.0 10.0 0.00 0.00 0.00 30 1019.3
20190322215005 67 296 4.0 12.0 0.00 0.00 0.00 31 1019.2
20190322214504 67 289 5.0 13.0 0.00 0.00 0.00 30 1019.2
20190322214005 67 296 8.0 14.0 0.00 0.00 0.00 29 1019.1
20190322213504 67 294 5.0 14.0 0.00 0.00 0.00 31 1019.2
20190322213005 66 301 5.0 14.0 0.00 0.00 0.00 30 1019.2
20190322212504 66 307 6.0 12.0 0.00 0.00 0.00 30 1019.2
20190322210005 65 311 6.0 14.0 0.00 0.00 0.00 30 1019.3
20190322205505 65 292 7.0 13.0 0.00 0.00 0.00 31 1019.2
20190322205006 66 265 8.0 13.0 0.00 0.00 0.00 30 1019.2
20190322204505 66 290 5.0 13.0 0.00 0.00 0.00 31 1019.2
20190322203505 66 313 5.0 15.0 0.00 0.00 0.00 32 1019.3
20190322200005 66 284 9.0 13.0 0.00 0.00 0.00 32 1019.6
20190322195006 65 284 9.0 14.0 0.00 0.00 0.00 32 1019.6
20190322194504 64 307 6.0 13.0 0.00 0.00 0.00 34 1019.7
20190322194005 64 275 7.0 13.0 0.00 0.00 0.00 36 1019.7
20190322193005 65 275 3.0 12.0 0.00 0.00 0.00 36 1019.9
20190322192505 65 275 4.0 12.0 0.00 0.00 0.00 38 1019.9
20190322192005 65 299 8.0 12.0 0.00 0.00 0.00 35 1019.9
20190322191505 65 247 8.0 12.0 0.00 0.00 0.00 35 1019.9
20190322191005 65 293 6.0 10.0 0.00 0.00 0.00 35 1020.0
20190322185504 64 268 7.0 13.0 0.00 0.00 0.00 40 1020.1
20190322185006 63 268 6.0 13.0 0.00 0.00 0.00 41 1020.1
20190322184504 62 272 7.0 14.0 0.00 0.00 0.00 45 1020.0
20190322183504 61 262 5.0 12.0 0.00 0.00 0.00 43 1020.2
20190322182005 62 257 6.0 14.0 0.00 0.00 0.00 43 1020.3
20190322181505 61 278 5.0 14.0 0.00 0.00 0.00 43 1020.4
20190322181005 61 271 7.0 14.0 0.00 0.00 0.00 43 1020.4
20190322180504 61 259 5.0 12.0 0.00 0.00 0.00 44 1020.5
20190322175504 62 259 4.0 12.0 0.00 0.00 0.00 42 1020.7
20190322174505 60 307 5.0 13.0 0.00 0.00 0.00 43 1020.8
20190322172004 59 247 5.0 12.0 0.00 0.00 0.00 49 1021.2
20190322171505 59 266 7.0 12.0 0.00 0.00 0.00 46 1021.2
20190322171004 59 310 3.0 12.0 0.00 0.00 0.00 45 1021.2
20190322170505 59 300 6.0 12.0 0.00 0.00 0.00 46 1021.3
20190322170004 58 270 5.0 12.0 0.00 0.00 0.00 50 1021.2
20190322165505 58 307 4.0 10.0 0.00 0.00 0.00 48 1021.2
20190322164004 57 296 6.0 10.0 0.00 0.00 0.00 50 1021.3
20190322161505 56 302 2.0 14.0 0.00 0.00 0.00 54 1021.4
20190322160504 55 300 2.0 10.0 0.00 0.00 0.00 56 1021.4
20190322160004 55 262 6.0 10.0 0.00 0.00 0.00 55 1021.4
20190322155005 55 296 3.0 9.0 0.00 0.00 0.00 59 1021.4
20190322154504 54 305 4.0 9.0 0.00 0.00 0.00 60 1021.4
20190322154005 53 260 5.0 9.0 0.00 0.00 0.00 62 1021.4
20190322152505 52 285 3.0 9.0 0.00 0.00 0.00 65 1021.4
20190322152005 52 272 6.0 9.0 0.00 0.00 0.00 62 1021.3
20190322151504 52 281 4.0 9.0 0.00 0.00 0.00 64 1021.4
20190322151005 52 309 2.0 9.0 0.00 0.00 0.00 65 1021.4
20190322150005 50 255 3.0 10.0 0.00 0.00 0.00 70 1021.3
20190322145505 49 248 5.0 10.0 0.00 0.00 0.00 71 1021.3
20190322145005 49 267 4.0 10.0 0.00 0.00 0.00 73 1021.2
20190322144505 48 283 3.0 10.0 0.00 0.00 0.00 74 1021.2
20190322143505 47 260 4.0 9.0 0.00 0.00 0.00 76 1021.3
20190322143006 47 250 2.0 6.0 0.00 0.00 0.00 77 1021.3
20190322142505 46 281 2.0 8.0 0.00 0.00 0.00 77 1021.3
20190322142005 46 271 4.0 8.0 0.00 0.00 0.00 78 1021.2
20190322141006 45 270 5.0 9.0 0.00 0.00 0.00 79 1021.2
20190322140504 44 264 4.0 9.0 0.00 0.00 0.00 80 1021.1
20190322140004 44 267 3.0 9.0 0.00 0.00 0.00 82 1021.0
20190322135504 43 264 5.0 9.0 0.00 0.00 0.00 81 1020.9
20190322135005 43 255 4.0 9.0 0.00 0.00 0.00 83 1021.0
20190322134504 42 253 3.0 9.0 0.00 0.00 0.00 86 1021.0
20190322134004 41 261 3.0 6.0 0.00 0.00 0.00 88 1021.0
20190322133504 40 300 1.0 6.0 0.00 0.00 0.00 90 1021.0
20190322133005 39 309 0.0 3.0 0.00 0.00 0.00 91 1020.9
20190322132504 37 329 0.0 3.0 0.00 0.00 0.00 90 1020.9
20190322130504 34 331 0.0 0.0 0.00 0.00 0.00 90 1020.9
20190322130004 34 331 0.0 0.0 0.00 0.00 0.00 90 1020.8
20190322124505 32 331 0.0 0.0 0.00 0.00 0.00 91 1020.8
20190322123504 32 331 0.0 0.0 0.00 0.00 0.00 91 1020.6
20190322122504 31 331 0.0 0.0 0.00 0.00 0.00 91 1020.6
20190322122005 31 331 0.0 0.0 0.00 0.00 0.00 91 1020.5
20190322121504 31 331 0.0 0.0 0.00 0.00 0.00 91 1020.5
20190322121005 31 331 0.0 0.0 0.00 0.00 0.00 91 1020.4
20190322120505 31 331 0.0 0.0 0.00 0.00 0.00 91 1020.4
20190322120004 31 331 0.0 0.0 0.00 0.00 0.00 91 1020.3
20190322115504 31 331 0.0 0.0 0.00 0.00 0.00 91 1020.3
20190322115004 31 331 0.0 0.0 0.00 0.00 0.00 91 1020.2
20190322113505 31 331 0.0 0.0 0.00 0.00 0.00 91 1020.1
20190322113005 31 331 0.0 0.0 0.00 0.00 0.00 91 1020.1
20190322112505 31 331 0.0 0.0 0.00 0.00 0.00 91 1020.1
20190322112005 31 331 0.0 0.0 0.00 0.00 0.00 91 1020.0
20190322110504 31 331 0.0 0.0 0.00 0.00 0.00 91 1019.9
20190322104504 31 331 0.0 0.0 0.00 0.00 0.00 91 1019.6
20190322103504 31 331 0.0 0.0 0.00 0.00 0.00 91 1019.6
20190322102005 32 331 0.0 0.0 0.00 0.00 0.00 91 1019.5
20190322101504 32 331 0.0 0.0 0.00 0.00 0.00 91 1019.4
20190322101005 32 331 0.0 0.0 0.00 0.00 0.00 91 1019.5
20190322100503 32 331 0.0 0.0 0.00 0.00 0.00 91 1019.4
20190322100006 32 331 0.0 0.0 0.00 0.00 0.00 91 1019.5
20190322095504 32 331 0.0 0.0 0.00 0.00 0.00 91 1019.5
20190322095005 32 331 0.0 0.0 0.00 0.00 0.00 91 1019.5
20190322094504 32 331 0.0 0.0 0.00 0.00 0.00 91 1019.5
20190322094005 32 331 0.0 0.0 0.00 0.00 0.00 91 1019.5
20190322093505 32 331 0.0 0.0 0.00 0.00 0.00 91 1019.5
20190322091505 32 331 0.0 0.0 0.00 0.00 0.00 91 1019.4
20190322090505 32 331 0.0 0.0 0.00 0.00 0.00 91 1019.5
20190322090005 32 331 0.0 0.0 0.00 0.00 0.00 91 1019.6
20190322085504 32 331 0.0 0.0 0.00 0.00 0.00 91 1019.6